EW7119 Weather Reports


Display with metric or nautical units.
time (UTC)temp
F
wind
direction
speed
MPH
gust
MPH
rain 1hr
in
rain 24hr
in
rain mn
in
humidity
%
barometer
mb
20260510223101 55 148 4.0 10.0 0.00 0.01 0.01 53 1013.0
20260510221603 56 126 4.0 8.0 0.00 0.01 0.01 52 1013.1
20260510220050 58 163 4.0 9.0 0.00 0.01 0.01 48 1013.1
20260510214556 58 209 3.0 8.0 0.00 0.01 0.01 48 1013.1
20260510213119 58 172 3.0 12.0 0.00 0.01 0.01 45 1013.3
20260510211605 58 133 2.0 8.0 0.00 0.01 0.01 43 1013.1
20260510210104 57 157 3.0 9.0 0.00 0.01 0.01 39 1013.3
20260510204618 54 146 5.0 11.0 0.00 0.01 0.01 45 1013.3
20260510203117 53 227 2.0 8.0 0.00 0.01 0.01 48 1013.3
20260510201626 53 161 6.0 11.0 0.00 0.01 0.01 52 1013.0
20260510200137 53 168 4.0 9.0 0.00 0.01 0.01 47 1013.1
20260510194623 54 269 3.0 8.0 0.00 0.01 0.01 41 1013.0
20260510193003 54 257 2.0 7.0 0.00 0.01 0.01 47 1013.0
20260510191514 55 323 4.0 8.0 0.00 0.01 0.01 39 1013.1
20260510190128 54 175 2.0 8.0 0.00 0.01 0.01 45 1013.0
20260510184508 53 277 2.0 6.0 0.00 0.01 0.01 44 1013.1
20260510183111 52 269 2.0 8.0 0.00 0.01 0.01 46 1013.3
20260510181555 52 284 1.0 7.0 0.00 0.01 0.01 47 1013.2
20260510180105 51 310 1.0 8.0 0.00 0.01 0.01 51 1013.4
20260510174604 50 158 3.0 8.0 0.00 0.01 0.01 52 1013.3
20260510173109 49 261 2.0 7.0 0.00 0.01 0.01 58 1013.2
20260510171627 47 271 2.0 7.0 0.00 0.01 0.01 62 1013.3
20260510170122 47 336 3.0 6.0 0.00 0.01 0.01 62 1013.1
20260510164630 46 309 1.0 6.0 0.00 0.01 0.01 68 1013.0
20260510163055 44 22 1.0 5.0 0.00 0.01 0.01 76 1013.0
20260510161534 43 350 2.0 7.0 0.00 0.01 0.01 75 1012.8
20260510160100 42 262 2.0 6.0 0.00 0.01 0.01 85 1012.7
20260510154534 41 146 1.0 5.0 0.00 0.01 0.01 87 1012.7
20260510153102 40 178 1.0 4.0 0.00 0.01 0.01 93 1012.7
20260510151606 39 176 0.0 0.0 0.00 0.01 0.01 94 1012.8
20260510150109 39 176 0.0 1.0 0.00 0.01 0.01 94 1012.5
20260510144618 38 176 0.0 3.0 0.00 0.01 0.01 95 1012.5
20260510143132 38 176 2.0 4.0 0.00 0.01 0.01 95 1012.2
20260510141624 37 176 0.0 2.0 0.00 0.01 0.01 95 1012.2
20260510140023 37 176 0.0 0.0 0.00 0.01 0.01 95 1012.2
20260510134514 37 176 0.0 0.0 0.00 0.01 0.01 94 1012.1
20260510133024 37 176 1.0 3.0 0.00 0.01 0.01 95 1011.9
20260510131506 37 176 0.0 3.0 0.00 0.01 0.01 95 1011.5
20260510130052 37 176 0.0 3.0 0.00 0.01 0.01 94 1011.3
20260510124603 37 176 0.0 0.0 0.00 0.01 0.01 94 1011.2
20260510123117 37 176 0.0 0.0 0.00 0.01 0.01 94 1011.0
20260510121626 37 176 0.0 3.0 0.00 0.01 0.01 94 1010.9
20260510120044 37 176 2.0 4.0 0.00 0.01 0.01 94 1010.6
20260510114532 37 167 3.0 5.0 0.00 0.01 0.01 94 1010.6
20260510113049 37 144 0.0 0.0 0.00 0.01 0.01 94 1010.6
20260510111619 37 144 0.0 0.0 0.00 0.01 0.01 94 1010.6
20260510110125 36 144 0.0 0.0 0.00 0.01 0.01 94 1010.6
20260510104517 36 144 0.0 0.0 0.00 0.01 0.01 93 1010.6
20260510103129 36 144 0.0 0.0 0.00 0.01 0.01 93 1010.6
20260510101501 36 144 0.0 0.0 0.00 0.01 0.01 93 1010.6
20260510100050 36 144 0.0 0.0 0.00 0.01 0.01 93 1010.4
20260510094536 36 144 0.0 0.0 0.01 0.01 0.01 92 1010.4
20260510093056 36 144 0.0 0.0 0.01 0.01 0.01 92 1010.2
20260510091519 36 139 2.0 4.0 0.01 0.01 0.01 92 1010.0
20260510090128 36 329 0.0 2.0 0.01 0.01 0.01 92 1010.2
20260510084532 36 348 1.0 4.0 0.00 0.00 0.00 91 1009.9
20260510083057 37 325 0.0 2.0 0.00 0.00 0.00 91 1009.8
20260510081608 37 325 1.0 4.0 0.00 0.00 0.00 91 1009.6
20260510080113 37 309 1.0 3.0 0.00 0.00 0.00 91 1009.5
20260510074622 37 309 1.0 4.0 0.00 0.00 0.00 91 1009.5
20260510073023 37 309 2.0 5.0 0.00 0.00 0.00 92 1009.2
20260510071626 37 317 0.0 5.0 0.00 0.00 0.00 91 1009.2
20260510070042 36 318 3.0 4.0 0.00 0.00 0.00 91 1009.1
20260510064543 36 32 1.0 5.0 0.00 0.00 0.00 90 1008.5
20260510063044 37 95 1.0 5.0 0.00 0.00 0.00 89 1008.2
20260510061532 37 339 3.0 8.0 0.00 0.00 0.00 89 1007.8
20260510060101 38 107 2.0 5.0 0.00 0.00 0.00 90 1007.2
20260510054608 38 51 2.0 10.0 0.00 0.00 0.00 91 1007.3
20260510053107 37 128 3.0 11.0 0.00 0.00 0.00 92 1007.8
20260510051609 37 325 8.0 15.0 0.00 0.00 0.00 91 1008.1
20260510050058 38 306 4.0 12.0 0.00 0.00 0.00 90 1008.0
20260510044626 38 74 5.0 17.0 0.00 0.00 0.00 90 1007.6
20260510043112 38 360 5.0 15.0 0.00 0.00 0.00 89 1007.6
20260510041614 39 355 5.0 15.0 0.00 0.00 0.00 86 1007.5
20260510040118 40 344 8.0 20.0 0.00 0.00 0.00 83 1007.1
20260510034612 41 325 10.0 24.0 0.00 0.00 0.00 77 1006.8
20260510033126 44 294 7.0 17.0 0.00 0.00 0.00 68 1006.0
20260510031620 48 313 5.0 15.0 0.00 0.00 0.00 50 1005.7
20260510030123 50 321 0.0 8.0 0.00 0.00 0.00 39 1005.4
20260510024558 50 65 1.0 5.0 0.00 0.00 0.00 38 1005.0
20260510023104 50 41 1.0 4.0 0.00 0.00 0.00 37 1004.6
20260510021652 51 79 2.0 5.0 0.00 0.00 0.00 36 1004.3
20260510020118 52 112 0.0 5.0 0.00 0.00 0.00 36 1004.0
20260510014621 52 104 2.0 4.0 0.00 0.00 0.00 34 1003.8
20260510013005 53 118 1.0 4.0 0.00 0.00 0.00 33 1003.9
20260510011553 54 21 0.0 4.0 0.00 0.00 0.00 28 1003.9
20260510010054 54 355 0.0 1.0 0.00 0.00 0.00 29 1003.5
20260510004553 55 349 0.0 4.0 0.00 0.00 0.00 27 1003.4
20260510003013 55 263 0.0 2.0 0.00 0.00 0.00 27 1003.4
20260510001632 55 263 0.0 5.0 0.00 0.00 0.00 28 1003.3
20260510000122 56 342 1.0 3.0 0.00 0.00 0.00 27 1003.3
20260509234626 56 342 1.0 6.0 0.00 0.00 0.00 28 1003.3
20260509233119 56 298 1.0 6.0 0.00 0.00 0.00 28 1003.4
20260509231613 57 327 5.0 18.0 0.00 0.00 0.00 26 1003.2
20260509230112 59 44 5.0 12.0 0.00 0.00 0.00 23 1002.7
20260509224613 59 330 4.0 10.0 0.00 0.00 0.00 20 1002.4